Temperature
22 22 22 21 22 23 23 24 25 25 25 26 25 25 24 23 22 19 19 19 18 18 18 18 18 18 18 18 18 18 18 18 18 18 18 18 18 18 18 18 18 18 18 18 18 18 18 18 18
22 22 22 22 23 23 23 24 25 25 26 25 25 25 24 22 21 19 18 19 18 18 18 18 18 18 18 18 18 18 18 18 18 18 18 18 18 18 18 18 18 18 18 18 18 18 18 18 18
22 22 23 23 24 24 24 25 25 25 25 26 25 24 23 22 20 19 19 19 18 18 18 18 18 18 18 18 18 18 17 17 18 18 18 18 18 18 18 18 18 18 18 18 18 18 18 18 18
22 23 24 23 24 24 25 25 26 25 25 25 25 23 21 21 20 19 19 18 18 18 18 18 18 18 18 18 17 17 17 17 17 18 18 18 18 18 18 18 17 17 18 18 18 18 18 18 17
22 23 23 23 24 25 26 26 26 26 25 25 24 22 20 19 19 19 19 18 18 18 18 18 18 18 18 17 17 17 17 17 17 17 17 17 17 17 17 17 17 17 17 17 17 17 17 17 17
23 24 23 23 24 25 26 26 26 25 25 25 24 22 20 19 19 19 19 18 18 18 18 18 18 18 18 17 17 17 17 17 17 17 17 17 17 17 17 17 17 17 17 17 17 17 17 17 17
24 23 23 24 24 24 25 26 25 25 25 24 24 22 20 19 19 19 19 18 18 18 18 18 18 17 17 17 17 17 17 17 17 17 17 17 17 17 17 17 17 17 17 17 17 17 17 17 17
24 24 24 24 24 24 25 25 25 25 24 24 23 22 20 19 18 18 18 18 18 18 18 18 17 17 17 17 17 17 17 17 17 17 17 17 17 17 17 17 17 17 17 17 17 17 17 17 17
24 23 23 24 24 24 25 25 24 24 24 23 23 22 20 19 19 18 18 18 18 18 18 18 17 17 17 17 17 17 17 17 17 16 16 16 16 16 16 16 16 16 16 16 16 16 16 16 16
24 22 24 25 25 24 25 25 24 24 24 23 22 21 20 19 19 19 18 18 18 18 18 18 18 17 17 17 17 16 16 16 16 16 16 16 16 16 16 16 16 16 16 16 16 16 16 16 16
25 24 24 25 25 25 24 24 24 24 23 22 21 20 20 19 19 19 19 19 18 18 18 18 18 18 17 17 17 16 16 16 16 16 16 16 16 16 16 16 16 16 16 16 16 16 16 16 16
24 25 25 24 24 24 24 24 23 23 23 22 21 20 20 20 19 19 19 19 18 18 18 18 18 18 17 17 17 17 16 16 16 16 16 16 16 16 16 16 16 16 15 15 15 15 16 16 15
24 24 24 24 24 24 24 24 23 23 22 22 21 21 20 20 20 19 19 19 19 18 18 18 18 18 17 17 17 17 16 16 16 16 16 16 16 16 16 16 15 15 15 15 15 15 15 15 15
24 24 24 24 24 24 24 23 23 22 22 22 21 21 20 20 20 20 19 19 19 18 18 18 18 18 18 17 17 17 16 16 16 16 16 16 16 16 16 15 15 15 15 15 15 15 15 15 15
24 24 24 24 24 24 24 23 23 22 22 22 21 21 20 20 20 20 19 19 19 18 18 18 18 18 18 17 17 17 16 16 16 16 16 16 16 16 15 15 15 15 15 15 15 15 15 15 15
24 24 23 24 24 24 23 22 23 22 22 22 21 21 20 20 20 20 19 19 19 19 18 18 17 17 17 17 17 17 17 16 16 16 16 16 16 15 15 15 15 15 15 15 15 15 15 15 14
24 23 23 24 25 24 23 22 23 22 22 22 21 21 20 20 20 20 19 19 19 18 18 18 17 17 17 17 17 17 16 16 16 16 16 15 15 15 15 15 15 15 15 15 14 14 14 14 14
23 24 24 24 24 24 23 22 22 22 22 22 22 21 21 20 20 20 19 19 18 18 18 18 17 17 17 17 16 16 16 16 15 15 15 15 15 15 15 15 14 14 14 14 14 14 14 14 14
24 24 24 24 25 24 23 23 22 22 22 22 21 21 21 21 20 20 19 19 18 18 18 17 17 17 17 16 16 16 16 15 15 15 15 15 15 15 15 14 14 14 14 14 14 14 14 14 14
24 24 23 24 25 24 23 23 23 23 22 22 22 21 21 21 20 20 19 18 18 18 18 17 17 17 16 16 16 16 15 15 15 15 15 15 15 14 14 14 14 14 14 14 14 14 14 14 14
24 23 23 23 24 24 23 23 23 23 23 22 22 21 21 21 20 19 19 18 18 18 17 17 17 16 16 16 16 15 15 15 15 15 15 15 14 14 14 14 14 14 14 14 14 14 14 14 13
23 24 24 23 23 22 23 21 23 23 22 22 22 21 21 21 20 20 19 18 18 17 17 17 17 16 16 16 15 15 15 15 15 15 15 14 14 14 14 14 14 14 13 13 13 13 13 13 13
23 24 24 23 23 22 23 22 23 23 22 22 22 21 21 20 20 20 19 18 18 17 17 17 16 16 16 16 15 15 15 15 15 14 14 14 14 14 14 14 14 13 13 13 13 13 13 13 13
24 24 24 23 22 21 23 23 22 22 22 22 22 21 21 20 20 19 19 18 18 17 17 17 16 16 16 15 15 15 15 15 15 14 14 14 14 14 14 14 13 13 13 13 13 13 13 13 13
24 22 21 21 21 22 24 23 22 23 23 23 22 21 21 20 19 19 18 18 17 17 17 16 16 16 15 15 15 15 15 14 14 14 14 14 14 14 14 14 13 13 13 13 13 13 13 13 13
23 23 21 20 21 22 23 23 22 23 23 23 22 21 20 20 19 18 18 17 17 17 16 16 16 15 15 15 15 15 14 14 14 14 14 14 14 14 14 14 13 13 13 13 13 13 13 13 13
23 23 23 22 22 22 22 22 22 22 22 22 22 21 20 19 18 18 17 17 16 16 16 16 15 15 15 15 15 15 15 14 14 14 14 14 14 14 14 14 13 13 13 13 13 13 12 12 12
23 23 22 21 20 21 22 22 21 21 21 21 21 20 20 19 18 18 17 16 16 16 16 16 15 15 15 15 14 14 14 14 14 14 14 14 14 14 14 14 13 13 13 13 13 13 12 12 12
22 22 22 21 21 20 20 21 23 21 21 21 21 20 19 19 18 17 17 16 16 16 15 15 15 15 15 15 14 14 14 14 14 14 14 14 14 13 13 13 13 13 13 13 13 13 12 12 12
22 22 22 20 20 21 20 20 22 22 22 21 21 20 19 18 18 17 17 16 16 15 15 15 15 15 15 14 14 14 14 14 14 14 14 14 13 13 13 13 13 13 13 13 13 12 12 12 12
Wind_Speed
10 10 7 3 2 1 4 5 7 7 7 8 9 9 12 12 9 8 3 4 8 9 10 11 11 11 11 11 12 12 12 12 13 13 14 13 13 13 13 13 13 13 13 13 13 13 13 12 12
10 7 4 3 2 2 4 6 8 8 8 7 8 11 13 11 10 8 4 5 8 10 11 11 11 11 11 12 12 13 13 13 13 13 14 13 13 13 13 13 13 14 14 14 13 13 13 12 11
11 7 4 2 1 3 5 7 8 8 6 6 7 9 8 7 9 5 5 6 9 10 13 11 11 11 11 12 12 13 13 13 13 13 14 14 14 14 14 14 14 14 15 14 14 14 13 12 11
5 4 3 0 4 5 6 7 8 7 6 7 7 8 8 9 6 7 6 7 9 10 12 11 11 11 12 12 13 13 13 13 13 14 14 15 16 16 15 15 15 15 15 15 15 14 12 11 10
4 3 1 1 3 4 6 6 6 6 6 7 9 10 9 9 10 9 7 7 9 9 11 12 11 12 13 13 13 14 14 13 14 14 14 15 16 16 15 15 15 15 15 15 15 14 12 11 10
3 2 1 2 4 4 4 4 6 7 7 7 8 10 7 9 8 7 7 6 8 9 10 11 12 13 13 14 14 14 13 13 13 13 13 14 15 15 15 15 15 15 14 14 14 13 11 11 10
3 2 1 2 3 4 4 4 5 6 6 5 5 7 7 8 6 5 6 7 7 8 8 9 10 11 13 14 14 13 12 12 11 11 11 12 13 14 14 15 15 15 14 13 12 11 10 9 9
4 1 1 1 3 3 4 5 5 6 5 5 5 6 7 9 7 6 6 6 6 6 6 8 9 10 11 11 12 11 11 10 10 10 10 11 12 13 14 14 14 14 13 12 11 10 9 8 6
4 1 0 1 2 3 4 4 5 5 5 6 8 11 12 12 9 6 6 5 5 6 5 6 7 7 9 10 10 9 8 8 7 7 8 8 9 10 12 13 12 12 11 10 8 7 7 6 5
1 0 1 3 4 4 4 3 4 4 6 7 10 12 13 10 9 7 6 6 5 5 4 6 6 6 7 7 7 6 6 5 4 6 7 6 7 9 10 10 10 9 8 7 6 5 4 4 3
1 1 3 4 5 4 4 4 3 3 4 6 9 11 11 9 8 7 6 6 5 4 4 5 5 6 6 4 5 4 4 3 4 6 7 6 7 7 7 5 5 5 6 4 4 3 4 4 4
2 2 3 4 4 3 2 3 3 4 4 6 9 11 9 8 7 6 6 6 6 5 4 5 5 6 5 5 4 3 3 3 4 5 6 5 2 3 4 4 4 4 4 4 4 4 5 5 6
3 3 3 3 2 2 2 3 3 4 5 6 10 10 8 7 7 6 6 6 6 6 4 4 5 5 5 4 2 4 3 3 4 4 5 6 3 3 3 3 4 5 5 4 3 4 4 5 6
4 4 4 4 3 3 3 3 3 3 5 7 8 8 8 6 6 6 6 5 6 6 4 5 4 5 5 4 3 3 3 4 5 3 4 7 5 3 3 4 4 4 4 4 4 4 4 4 4
4 4 4 4 4 4 2 3 5 5 5 6 6 7 8 6 5 5 6 6 6 6 5 5 3 4 5 4 3 3 3 4 3 3 4 7 6 5 4 4 3 3 5 6 5 5 4 4 4
7 6 5 5 5 4 4 4 5 6 6 5 5 6 6 5 6 5 5 5 5 6 6 5 4 4 4 4 4 3 3 4 3 3 4 5 6 6 5 3 3 4 5 3 3 4 4 4 4
6 6 6 6 6 5 6 3 5 6 7 6 6 6 7 6 5 6 5 4 5 5 6 6 4 4 4 4 3 3 3 4 4 4 4 4 6 7 5 3 2 5 3 3 3 4 4 3 3
4 4 4 5 6 6 5 4 5 6 6 6 6 6 7 7 6 6 6 5 5 5 6 6 5 4 4 3 3 3 3 3 3 3 4 5 5 6 5 3 4 4 3 3 4 4 3 2 1
4 4 4 2 4 5 6 5 6 6 6 5 5 5 5 7 6 6 7 6 5 5 5 6 5 5 4 3 2 3 2 2 3 2 3 4 4 4 4 2 3 3 2 2 3 2 2 2 1
5 5 4 3 4 4 4 5 6 8 7 6 6 5 5 5 7 6 7 6 5 5 5 6 5 5 5 3 3 2 3 2 2 2 2 3 3 3 3 2 3 3 2 3 3 2 1 2 2
5 4 4 3 4 6 6 6 7 8 7 6 5 5 5 5 7 8 7 6 5 5 6 5 6 6 5 5 3 3 2 1 1 1 1 2 2 3 3 2 2 2 2 2 1 1 2 1 2
5 2 4 6 6 5 6 4 6 9 8 8 6 5 5 4 5 6 6 6 5 5 5 6 6 6 6 6 4 4 3 2 2 2 2 2 2 2 2 2 2 1 2 2 0 1 0 1 1
4 4 7 7 8 8 8 6 4 8 7 6 6 6 5 5 5 6 6 6 5 5 4 4 5 5 5 5 5 4 3 2 2 2 3 2 2 2 2 2 1 1 2 1 1 1 1 0 0
5 7 9 8 7 8 7 6 3 4 5 6 7 6 5 5 5 5 5 5 4 5 5 4 4 4 4 4 5 4 3 2 2 2 1 1 1 1 1 2 1 1 1 1 1 1 0 0 0
6 5 4 5 6 4 4 4 2 4 4 4 6 6 6 5 5 5 5 4 4 5 4 4 4 5 4 4 4 4 4 3 3 3 2 2 1 1 1 1 1 1 1 1 1 0 1 1 0
6 7 4 3 4 2 3 3 4 6 6 5 5 6 6 6 5 5 5 4 4 4 4 4 4 4 5 4 4 4 4 3 2 3 2 3 2 2 2 2 2 2 2 1 1 0 1 1 1
6 6 5 5 7 6 4 3 4 6 6 6 5 6 6 6 5 5 5 4 4 4 4 4 4 4 4 4 3 3 4 3 3 3 2 2 2 3 3 2 2 2 2 2 2 1 1 0 1
6 6 4 4 4 5 4 4 5 8 7 6 5 5 5 6 6 6 5 4 3 3 3 4 4 4 4 3 3 2 2 3 2 2 2 2 2 2 2 2 2 2 2 2 1 1 0 1 1
6 6 5 4 5 4 3 0 4 7 7 6 5 5 4 4 5 5 5 4 3 3 2 3 4 4 3 3 3 2 2 2 2 2 2 2 2 3 3 3 2 2 2 2 1 1 1 1 1
5 6 5 4 5 5 5 1 4 5 6 6 6 5 5 4 3 4 4 4 3 2 2 2 3 3 3 2 2 2 2 2 2 1 2 2 2 2 3 2 2 2 2 2 2 2 1 1 2
Wind_Direction
273 258 249 256 256 193 80 77 79 73 69 60 54 63 66 51 52 90 117 89 92 95 92 71 57 56 57 62 69 70 69 67 66 64 64 65 67 70 73 74 75 78 79 79 80 81 83 84 83
276 271 267 243 252 114 91 89 79 72 80 81 68 71 73 66 72 96 100 88 92 93 86 74 63 60 62 66 72 73 73 72 68 66 65 64 68 76 79 79 79 78 78 79 78 81 84 84 83
268 266 267 268 29 76 93 92 92 86 84 80 74 61 58 71 80 90 105 101 92 89 87 77 69 64 65 71 75 78 77 75 71 69 67 65 67 75 80 81 82 80 78 77 77 77 81 84 84
267 253 248 11 60 62 91 101 106 102 87 76 82 77 71 57 77 98 99 96 95 93 93 85 76 71 73 76 78 80 80 77 75 72 70 70 72 77 80 80 80 80 77 75 75 75 77 81 79
249 253 221 121 81 70 74 92 105 101 92 82 80 88 83 74 87 100 97 94 95 97 99 96 87 83 81 81 82 81 81 79 75 72 73 73 75 77 80 81 80 80 78 76 74 73 73 76 75
268 254 216 151 117 94 77 74 95 96 91 93 96 100 95 97 92 98 99 98 99 100 102 106 98 92 88 87 87 84 81 80 79 76 75 76 78 79 80 80 81 81 80 77 74 73 71 71 69
272 288 222 154 109 101 92 77 82 93 87 77 87 99 113 104 98 101 96 90 95 103 110 113 116 106 99 94 90 87 83 82 85 83 81 82 84 86 83 82 81 79 78 78 78 76 73 70 65
287 295 179 164 116 103 88 91 86 82 80 69 76 99 124 124 126 111 99 96 98 101 112 119 115 115 114 108 98 93 91 89 90 89 88 91 91 88 86 82 82 80 78 77 78 79 77 69 62
272 256 214 120 117 117 107 107 96 98 92 79 69 86 117 130 131 121 107 100 94 96 98 105 114 114 111 110 103 107 106 106 105 103 98 101 96 92 87 87 88 86 84 83 83 83 83 74 64
206 127 58 58 88 111 108 107 121 121 104 95 92 100 118 133 136 130 125 122 111 104 105 105 110 111 108 105 111 112 103 107 103 97 96 95 92 90 90 97 96 93 91 92 85 79 73 68 70
145 125 70 65 74 90 109 104 92 113 104 112 123 125 132 138 135 132 129 118 114 109 101 105 110 114 108 106 107 96 90 87 71 78 88 89 88 98 97 107 110 105 89 75 71 69 62 64 60
117 99 87 86 73 83 96 102 87 76 93 109 126 132 140 141 137 137 132 122 115 103 93 99 104 109 109 104 109 107 93 80 65 64 77 77 83 89 94 93 86 82 66 62 57 54 50 47 54
150 136 119 116 123 118 115 104 104 99 98 107 121 133 143 143 139 136 131 124 120 115 115 102 97 103 107 97 102 109 101 93 83 58 81 77 68 66 79 82 65 62 56 58 55 56 45 41 41
139 135 147 162 160 160 148 147 153 136 127 122 129 139 146 145 148 142 136 133 129 128 128 104 103 108 113 113 114 111 103 83 82 58 69 83 66 65 66 69 63 56 53 55 59 58 53 54 50
166 177 185 193 196 177 192 205 176 165 150 141 144 148 150 155 153 148 147 142 135 136 126 110 108 107 111 109 105 93 97 102 95 77 68 79 79 72 76 61 62 60 52 54 56 50 54 60 59
206 208 205 192 202 197 218 222 151 153 158 157 164 154 151 160 164 160 145 140 138 131 119 115 120 109 98 95 99 91 93 92 89 75 69 80 79 72 76 68 57 62 58 58 59 49 43 47 49
219 212 205 191 190 200 219 218 159 170 175 176 179 169 164 168 172 158 147 145 135 131 123 118 109 102 94 94 103 91 87 84 81 72 59 63 74 78 81 76 69 66 54 40 53 57 52 50 50
227 233 217 200 177 206 219 207 177 175 185 188 184 178 175 173 175 159 146 140 134 130 125 124 126 121 109 92 92 92 84 82 79 75 67 60 62 73 82 91 78 73 60 41 50 60 54 47 34
279 265 257 206 169 218 224 209 190 187 184 189 190 191 190 175 162 146 136 136 142 140 137 132 133 128 114 106 100 103 105 99 90 87 79 76 66 69 77 84 84 79 72 68 59 63 58 38 48
258 263 254 212 197 233 230 227 189 187 187 186 194 193 191 179 154 140 139 145 154 150 148 140 138 131 123 122 121 125 118 118 112 114 102 93 77 70 75 79 86 92 81 64 56 52 47 14 22
250 261 284 277 246 237 242 236 199 184 183 176 192 193 195 185 162 156 153 149 157 159 159 152 143 138 133 129 123 116 106 104 105 133 118 108 94 79 73 75 91 106 104 104 100 69 63 4 344
267 273 269 266 259 245 226 241 197 176 177 177 181 192 183 181 168 155 153 156 160 159 155 153 152 150 143 137 141 148 150 162 169 154 144 147 109 100 96 81 89 105 98 112 137 91 38 93 337
268 272 263 257 258 263 239 245 195 169 176 174 173 178 175 167 161 151 152 156 156 150 145 147 150 147 141 148 150 158 153 161 149 140 144 148 146 144 123 107 97 98 102 117 92 71 31 82 141
259 259 251 243 248 248 229 233 189 174 174 171 166 166 160 150 139 134 131 129 136 135 142 148 145 136 136 147 153 167 167 169 143 143 160 152 144 146 122 107 105 109 104 108 109 104 109 15 2
244 261 252 219 221 229 205 219 145 122 123 144 155 153 150 143 141 128 120 123 128 143 146 152 156 154 160 171 170 172 169 172 171 168 172 160 151 156 162 131 158 141 152 139 128 143 204 213 250
245 244 264 276 269 262 218 211 133 125 127 128 132 140 135 131 126 122 119 125 126 131 146 157 164 166 167 174 179 175 169 171 172 173 172 173 177 179 169 171 176 164 162 133 134 175 237 216 214
257 251 273 289 282 272 218 170 150 151 143 141 138 131 130 127 126 123 124 125 130 136 148 160 167 162 161 172 185 179 171 169 170 183 168 162 176 165 159 171 155 146 143 150 153 180 231 205 220
257 276 273 267 278 266 245 217 174 160 151 143 137 130 135 134 133 126 122 127 133 145 155 159 156 153 159 170 178 172 170 169 168 168 164 179 186 152 162 168 154 153 161 150 141 172 218 192 220
226 233 244 262 276 284 280 177 100 142 149 146 144 140 133 134 136 131 127 123 124 126 137 153 155 152 152 159 167 168 170 168 167 177 179 186 185 164 170 173 169 172 158 160 165 192 194 216 246
266 258 250 252 270 274 279 172 95 111 127 136 137 133 124 115 121 124 127 127 122 121 120 122 142 140 141 144 141 150 151 152 155 175 169 169 182 165 167 178 171 170 159 164 170 205 209 225 246
Height
1484 1483 1484 1486 1487 1489 1491 1486 1481 1483 1484 1486 1486 1487 1491 1496 1501 1512 1512 1510 1509 1508 1507 1506 1505 1505 1504 1504 1503 1504 1504 1504 1504 1504 1503 1503 1502 1502 1503 1504 1505 1506 1507 1508 1509 1510 1511 1512 1513
1484 1485 1486 1486 1488 1495 1494 1486 1485 1485 1487 1488 1489 1490 1493 1500 1505 1509 1510 1511 1510 1509 1508 1507 1506 1505 1504 1504 1504 1504 1505 1505 1505 1505 1505 1503 1502 1501 1504 1505 1506 1508 1509 1510 1511 1511 1512 1513 1514
1484 1486 1487 1484 1487 1493 1493 1485 1486 1487 1488 1489 1491 1494 1498 1504 1507 1509 1511 1511 1511 1510 1509 1508 1507 1506 1505 1505 1505 1505 1506 1507 1507 1507 1506 1504 1501 1501 1504 1507 1508 1509 1510 1511 1512 1513 1514 1515 1516
1486 1487 1486 1488 1491 1486 1485 1485 1486 1488 1489 1490 1492 1497 1503 1507 1509 1510 1511 1512 1512 1511 1510 1509 1507 1506 1506 1505 1506 1507 1508 1508 1509 1508 1508 1507 1505 1505 1507 1509 1510 1511 1512 1513 1514 1515 1516 1516 1517
1487 1486 1488 1491 1490 1486 1484 1485 1486 1488 1490 1492 1494 1501 1507 1510 1510 1511 1512 1513 1513 1512 1511 1510 1508 1507 1507 1507 1508 1509 1510 1510 1511 1511 1510 1510 1510 1510 1511 1511 1512 1513 1514 1515 1516 1516 1517 1518 1519
1488 1484 1492 1495 1491 1486 1486 1487 1488 1490 1492 1494 1497 1502 1509 1511 1512 1513 1513 1514 1514 1513 1512 1511 1510 1509 1509 1509 1510 1511 1512 1512 1513 1513 1513 1513 1513 1513 1514 1514 1515 1516 1516 1517 1517 1518 1519 1520 1521
1488 1486 1490 1491 1491 1490 1488 1488 1490 1491 1494 1496 1498 1502 1509 1512 1513 1514 1515 1515 1515 1515 1514 1513 1512 1512 1512 1512 1513 1513 1514 1514 1515 1515 1516 1516 1516 1516 1516 1517 1517 1518 1518 1519 1519 1520 1520 1521 1522
1486 1486 1489 1490 1492 1492 1489 1490 1492 1494 1497 1498 1499 1503 1509 1512 1514 1515 1515 1516 1516 1517 1517 1516 1515 1515 1514 1515 1516 1516 1516 1517 1517 1518 1518 1518 1518 1518 1519 1519 1519 1520 1520 1521 1521 1522 1522 1523 1524
1487 1490 1493 1490 1492 1492 1490 1492 1494 1496 1498 1500 1501 1504 1508 1511 1514 1515 1516 1517 1518 1518 1518 1518 1518 1518 1518 1518 1518 1518 1519 1519 1520 1520 1520 1521 1521 1521 1521 1522 1522 1522 1523 1523 1523 1524 1524 1525 1525
1487 1492 1490 1487 1488 1490 1491 1493 1495 1496 1498 1501 1504 1507 1509 1512 1514 1515 1517 1518 1519 1519 1520 1520 1520 1520 1520 1520 1520 1521 1521 1522 1522 1523 1523 1523 1524 1524 1524 1524 1524 1524 1525 1525 1525 1525 1526 1526 1526
1486 1489 1488 1488 1490 1491 1492 1494 1496 1497 1500 1502 1505 1508 1510 1512 1514 1515 1517 1518 1519 1520 1521 1521 1522 1522 1522 1522 1522 1523 1523 1524 1524 1525 1525 1526 1526 1526 1526 1526 1527 1527 1527 1527 1527 1527 1527 1527 1527
1487 1488 1489 1491 1492 1493 1494 1495 1497 1498 1501 1503 1505 1507 1510 1512 1514 1515 1517 1519 1520 1521 1522 1522 1523 1523 1523 1523 1524 1524 1525 1525 1526 1527 1527 1527 1528 1528 1529 1529 1529 1529 1529 1529 1529 1528 1529 1529 1529
1489 1490 1491 1493 1494 1494 1495 1496 1498 1500 1502 1503 1505 1508 1510 1512 1514 1516 1517 1519 1520 1521 1522 1523 1523 1524 1524 1524 1525 1525 1526 1527 1527 1528 1529 1529 1529 1530 1530 1530 1530 1530 1530 1530 1530 1530 1530 1530 1530
1489 1490 1492 1493 1494 1495 1496 1497 1499 1501 1502 1503 1506 1508 1510 1512 1514 1515 1517 1518 1520 1521 1522 1523 1524 1524 1525 1525 1526 1526 1527 1528 1528 1529 1530 1530 1530 1531 1531 1531 1531 1531 1531 1531 1531 1531 1531 1531 1531
1490 1491 1492 1492 1493 1494 1496 1498 1498 1500 1502 1504 1505 1507 1510 1511 1513 1515 1516 1518 1519 1520 1522 1523 1524 1525 1525 1526 1526 1527 1528 1528 1529 1530 1530 1531 1531 1532 1532 1532 1533 1533 1533 1532 1532 1532 1532 1532 1532
1488 1491 1496 1492 1491 1493 1498 1503 1497 1499 1501 1503 1505 1506 1509 1511 1513 1514 1516 1517 1519 1520 1521 1522 1524 1525 1525 1526 1526 1527 1528 1529 1529 1530 1531 1531 1532 1532 1532 1533 1533 1533 1533 1533 1533 1533 1533 1533 1533
1489 1494 1495 1492 1489 1491 1494 1499 1496 1498 1499 1502 1504 1506 1507 1509 1511 1513 1515 1516 1518 1519 1520 1521 1523 1524 1525 1526 1526 1527 1528 1529 1529 1530 1530 1531 1532 1532 1532 1533 1534 1534 1534 1534 1534 1534 1534 1534 1534
1492 1490 1490 1491 1488 1489 1492 1495 1495 1496 1498 1499 1501 1504 1505 1507 1509 1511 1513 1515 1517 1518 1520 1520 1522 1523 1524 1525 1526 1527 1528 1529 1529 1530 1531 1532 1532 1532 1533 1533 1534 1534 1534 1534 1534 1534 1534 1534 1535
1485 1488 1489 1487 1485 1488 1490 1492 1493 1494 1496 1498 1500 1502 1504 1505 1507 1510 1511 1513 1515 1517 1518 1519 1521 1522 1523 1524 1525 1526 1527 1528 1529 1530 1531 1531 1532 1532 1533 1533 1533 1534 1534 1534 1534 1535 1535 1535 1535
1484 1489 1489 1487 1484 1486 1489 1490 1489 1491 1493 1496 1498 1499 1501 1503 1505 1507 1510 1511 1514 1515 1517 1518 1520 1521 1522 1523 1524 1526 1526 1528 1529 1530 1530 1531 1532 1532 1533 1533 1533 1534 1534 1534 1534 1535 1535 1535 1535
1485 1489 1489 1489 1485 1484 1488 1492 1488 1488 1490 1493 1496 1498 1500 1502 1503 1505 1508 1510 1512 1514 1515 1517 1518 1520 1521 1522 1524 1525 1526 1527 1528 1529 1530 1530 1531 1532 1532 1533 1533 1533 1534 1534 1534 1535 1535 1535 1535
1488 1483 1485 1487 1491 1492 1489 1500 1488 1485 1488 1490 1494 1496 1498 1499 1502 1503 1506 1508 1510 1512 1514 1515 1517 1519 1520 1521 1522 1524 1524 1526 1527 1528 1529 1530 1530 1531 1532 1532 1532 1533 1533 1533 1534 1534 1534 1535 1535
1484 1482 1484 1485 1489 1491 1486 1493 1489 1482 1488 1489 1491 1494 1496 1498 1500 1502 1504 1507 1508 1510 1512 1514 1516 1517 1518 1519 1521 1522 1524 1525 1526 1527 1528 1528 1529 1530 1531 1531 1532 1532 1532 1532 1533 1533 1533 1534 1534
1481 1482 1482 1483 1489 1498 1485 1490 1492 1483 1483 1485 1488 1491 1494 1496 1499 1501 1503 1505 1507 1508 1510 1511 1513 1515 1516 1518 1519 1521 1522 1524 1525 1525 1526 1527 1528 1529 1530 1530 1531 1531 1531 1531 1531 1532 1532 1532 1533
1481 1489 1499 1500 1501 1495 1477 1484 1488 1479 1478 1481 1485 1489 1492 1495 1498 1500 1502 1503 1505 1506 1508 1510 1511 1513 1515 1516 1518 1519 1521 1522 1523 1524 1525 1526 1526 1527 1528 1529 1529 1529 1529 1530 1530 1530 1531 1531 1531
1481 1486 1500 1507 1500 1490 1480 1484 1483 1476 1478 1481 1484 1488 1491 1494 1496 1498 1500 1502 1503 1505 1506 1508 1510 1511 1513 1515 1516 1518 1519 1520 1521 1522 1523 1524 1525 1526 1527 1527 1527 1528 1528 1528 1528 1528 1529 1529 1529
1483 1483 1481 1490 1489 1492 1484 1480 1479 1476 1478 1481 1484 1487 1490 1493 1496 1498 1500 1501 1502 1503 1505 1507 1508 1510 1511 1513 1514 1516 1517 1518 1519 1520 1521 1522 1523 1524 1525 1525 1526 1526 1526 1526 1527 1527 1527 1527 1528
1480 1481 1485 1492 1500 1500 1488 1481 1482 1480 1480 1481 1484 1487 1490 1493 1495 1497 1499 1501 1502 1503 1504 1505 1507 1508 1509 1511 1512 1513 1514 1516 1517 1518 1519 1520 1521 1522 1523 1523 1524 1524 1524 1524 1525 1525 1525 1526 1526
1482 1483 1484 1488 1490 1499 1499 1490 1471 1475 1477 1480 1483 1486 1489 1492 1494 1496 1498 1500 1501 1502 1503 1504 1505 1507 1508 1509 1510 1511 1512 1513 1515 1516 1517 1518 1519 1519 1520 1521 1521 1522 1522 1522 1522 1523 1523 1523 1524
1479 1480 1483 1495 1494 1488 1492 1491 1471 1473 1475 1479 1483 1486 1489 1492 1494 1496 1497 1498 1500 1501 1501 1502 1503 1504 1505 1507 1508 1509 1510 1511 1512 1513 1514 1515 1516 1517 1518 1519 1519 1519 1520 1520 1520 1520 1521 1521 1521